EST,Max TemperatureF,Mean TemperatureF,Min TemperatureF,Max Dew PointF,MeanDew PointF,Min DewpointF,Max Humidity, Mean Humidity, Min Humidity, Max Sea Level PressureIn, Mean Sea Level PressureIn, Min Sea Level PressureIn, Max VisibilityMiles, Mean VisibilityMiles, Min VisibilityMiles, Max Wind SpeedMPH, Mean Wind SpeedMPH, Max Gust SpeedMPH,PrecipitationIn, CloudCover, Events, WindDirDegrees
2013-12-1,53,46,40,46,42,37,100,86,70,30.35,30.20,30.03,10,10,5,5,2,,0.00,7,,348
2013-12-2,58,48,37,46,42,38,100,87,50,30.02,29.91,29.84,10,8,3,6,0,,0.00,5,,27
2013-12-3,59,46,34,49,43,34,100,84,60,30.02,29.96,29.88,10,8,3,6,0,,0.00,5,Rain,164
2013-12-4,65,58,52,62,58,49,100,98,83,30.11,30.05,30.00,10,6,0,4,0,,0.11,7,Fog-Rain,204
2013-12-5,72,62,51,66,60,52,100,93,72,30.18,30.12,30.08,10,7,0,6,1,,0.00,5,Fog,181
2013-12-6,79,72,64,67,65,63,96,82,62,30.15,30.08,30.03,10,10,10,10,6,21,0.00,2,,191
2013-12-7,67,55,43,66,50,37,100,91,76,30.44,30.26,30.06,10,10,4,17,7,23,0.17,6,Rain,29
2013-12-8,44,40,36,40,38,37,100,96,76,30.43,30.37,30.30,10,6,2,12,7,18,0.12,8,Rain,24
2013-12-9,51,44,37,51,45,37,100,100,100,30.30,30.17,30.08,5,1,0,5,0,,0.01,8,Fog,329
2013-12-10,67,51,33,67,49,32,100,96,76,30.36,30.07,29.88,10,7,0,13,2,20,0.24,5,Fog-Rain,305
2013-12-11,50,38,27,36,30,24,100,80,41,30.48,30.38,30.32,10,10,7,6,0,,0.00,0,,14
2013-12-12,46,36,27,33,27,21,100,74,36,30.43,30.35,30.28,10,10,10,14,2,18,0.00,0,,348
2013-12-13,53,38,24,33,27,21,100,73,30,30.44,30.36,30.31,10,10,10,8,1,,0.00,0,,223
2013-12-14,66,51,37,63,45,30,100,83,63,30.32,30.06,29.77,10,8,1,10,2,20,1.20,6,Rain,121
2013-12-15,54,44,34,53,44,32,100,87,63,30.11,29.89,29.74,10,7,1,9,3,16,0.01,4,Rain,278
2013-12-16,57,44,30,39,34,30,100,79,43,30.21,30.16,30.10,10,10,7,9,1,,0.04,0,,248
2013-12-17,63,48,34,41,38,35,100,67,43,30.17,30.07,29.96,10,10,10,8,3,,0.00,0,,214
2013-12-18,52,41,30,38,29,21,96,65,30,30.33,30.22,30.03,10,10,10,10,3,16,0.00,0,,330
2013-12-19,61,44,28,40,31,28,99,67,29,30.38,30.32,30.27,10,10,10,9,1,,0.00,0,,213
2013-12-20,71,55,40,59,50,40,100,85,58,30.27,30.22,30.16,10,10,10,12,1,18,0.00,2,,229
2013-12-21,75,64,52,66,61,52,100,90,69,30.18,30.14,30.09,10,9,0,10,2,17,0.00,2,Fog,178
2013-12-22,81,73,66,69,67,66,100,87,61,30.13,30.10,30.07,10,9,5,14,6,26,0.00,4,,186
2013-12-23,78,64,50,70,66,50,100,94,72,30.13,30.08,30.01,10,9,3,13,7,20,0.39,7,Rain,230
2013-12-24,49,42,34,50,36,20,100,74,54,30.45,30.25,30.10,10,10,3,13,7,22,0.11,4,Rain,349
2013-12-25,41,34,27,28,21,15,86,60,43,30.55,30.47,30.39,10,10,10,12,5,16,0.00,1,,31
2013-12-26,44,38,32,37,33,28,100,84,64,30.40,30.33,30.27,10,10,7,6,1,,0.02,6,Rain,341
2013-12-27,51,40,30,34,30,26,100,75,44,30.46,30.41,30.36,10,10,7,6,1,,0.00,0,,27
2013-12-28,59,42,26,40,33,27,100,73,36,30.44,30.33,30.13,10,9,5,5,0,,0.00,1,Rain,86
2013-12-29,69,56,45,67,56,40,100,92,63,30.12,29.88,29.72,10,8,1,16,6,32,1.05,5,Rain,210
2013-12-30,55,46,39,47,44,40,100,90,60,30.15,30.06,29.95,10,9,2,6,0,,0.00,2,,345
2013-12-31,53,44,34,46,36,28,100,75,40,30.38,30.25,30.10,10,10,7,9,2,,0.00,2,,320